Location: Walnut Point State Park
(39.6958°N, 88.0345°W)
Time: 16:43:55
(UTC-06:00)

Amateur Radio Satellites - All Passes

Search period start: 20 January 2018 16:13
Search period end: 21 January 2018 16:13
Location: Walnut Point State Park, 39.6958°N, 88.0345°W

Satellite Date Start Highest point End Downlink Frequencies (MHz)
Time Altitude Azimuth
AO-7 20 Jan 16:18:33 16:23:58 19° 268° (W) 16:29:26 .
DOVE 4 20 Jan 16:22:04 16:26:12 44° 261° (W) 16:30:14 437.250
RS-15 20 Jan 16:24:21 16:35:58 59° 50° (NE) 16:46:56 29.354- 29.394
KAITUO 1B 20 Jan 16:30:15 16:32:53 18° 69° (ENE) 16:35:32 145.475/437.950
XW-2F 20 Jan 16:30:42 16:33:50 25° 70° (ENE) 16:36:59 145.980 - 146.000
ITUPSAT 1 20 Jan 16:31:26 16:35:25 26° 293° (WNW) 16:39:23 437.325
XW-2D 20 Jan 16:39:37 16:43:07 36° 73° (ENE) 16:46:38 145.860 - 145.880
NUDT-PHONESAT 20 Jan 16:41:34 16:44:34 23° 70° (ENE) 16:47:34 437.300
M-CUBED/EXP-1 PRIME 20 Jan 16:42:02 16:45:09 19° 260° (W) 16:48:09 437.505
HO-68 20 Jan 16:45:41 16:51:35 29° 61° (ENE) 16:57:29 435.675
XW-2B 20 Jan 16:56:55 17:00:41 57° 75° (ENE) 17:04:26 145.730 - 145.750
KKS-1 20 Jan 17:00:40 17:04:58 46° 100° (E) 17:09:15 437.445
CUBESAT XI-V 20 Jan 17:08:35 17:12:04 22° 293° (WNW) 17:15:32 437.345
BEESAT 20 Jan 17:13:47 17:14:56 11° 300° (WNW) 17:16:06 436.000
STARS 20 Jan 17:18:02 17:21:49 27° 96° (E) 17:25:35 437.465
LilacSat-2 20 Jan 17:24:32 17:28:19 55° 261° (W) 17:32:07 437.200
NO-84 20 Jan 17:26:52 17:29:42 33° 322° (NW) 17:32:23 435.350 FM
XW-2C 20 Jan 17:27:14 17:31:00 55° 260° (W) 17:34:47 145.795 - 145.815
CUTE-I 20 Jan 17:37:21 17:42:38 68° 258° (WSW) 17:47:56 437.470
SEEDS 20 Jan 17:40:39 17:44:19 29° 71° (ENE) 17:47:58 437.485
PCSat 20 Jan 17:49:33 17:54:03 26° 50° (NE) 17:58:31 145.827
CUTE 1.7 + AOD 2 20 Jan 17:51:51 17:56:06 69° 76° (ENE) 18:00:21 437.475
CUBEBUG 2 20 Jan 18:00:23 18:04:37 53° 74° (ENE) 18:09:01 437.445
KAITUO 1B 20 Jan 18:03:23 18:06:39 27° 263° (W) 18:09:55 145.475/437.950
XW-2F 20 Jan 18:04:57 18:07:52 21° 265° (W) 18:10:47 145.980 - 146.000
UWE-3 20 Jan 18:06:43 18:10:42 34° 71° (ENE) 18:14:49 435.000/436.395/437.385
BEESAT 3 20 Jan 18:07:58 18:11:49 54° 56° (NE) 18:15:36 437.485
XW-2D 20 Jan 18:15:14 18:17:24 14° 267° (W) 18:19:34 145.860 - 145.880
NUDT-PHONESAT 20 Jan 18:15:24 18:18:18 21° 265° (W) 18:21:12 437.300
STRAND 1 20 Jan 18:19:59 18:23:30 18° 93° (E) 18:27:02 437.568
ZACube-1 20 Jan 18:31:08 18:35:06 33° 70° (ENE) 18:39:10 437.345
HO-68 20 Jan 18:31:54 18:38:53 55° 259° (WSW) 18:45:54 435.675
RS-15 20 Jan 18:37:31 18:47:52 41° 253° (WSW) 18:57:47 29.354- 29.394
AO-73 20 Jan 18:38:03 18:42:04 34° 70° (ENE) 18:46:09 145.935
KKS-1 20 Jan 18:38:19 18:41:07 17° 295° (WNW) 18:43:56 437.445
XW-2A 20 Jan 18:39:53 18:43:10 44° 74° (ENE) 18:46:27 145.665 - 145.685
FO-29 20 Jan 18:47:37 18:50:01 13° 91° (E) 18:52:25 435.910
STARS 20 Jan 18:54:22 18:58:03 26° 292° (WNW) 19:01:43 437.465
BEESAT 2 20 Jan 18:55:08 18:59:01 45° 55° (NE) 19:02:49 435.950
AAUSAT CUBESAT 2 20 Jan 18:58:05 19:02:13 85° 257° (WSW) 19:06:22 437.432
Oscar 11 20 Jan 19:11:29 19:15:40 49° 73° (ENE) 19:19:53 .
SEEDS 20 Jan 19:16:43 19:19:58 22° 266° (W) 19:23:15 437.485
PCSat 20 Jan 19:32:27 19:37:39 47° 248° (WSW) 19:42:49 145.827
DELFI C3 20 Jan 19:38:57 19:41:25 16° 67° (ENE) 19:43:54 145.870
CUBEBUG 2 20 Jan 19:39:30 19:41:35 13° 270° (W) 19:43:41 437.445
UWE-3 20 Jan 19:43:54 19:47:13 21° 267° (W) 19:50:38 435.000/436.395/437.385
BEESAT 3 20 Jan 19:47:32 19:48:49 11° 252° (WSW) 19:50:05 437.485
nSIGHT-1 20 Jan 19:50:52 19:53:51 41° 137° (SE) 19:56:52 .
STRAND 1 20 Jan 19:57:59 20:02:57 50° 288° (WNW) 20:07:54 437.568
ISS 20 Jan 20:03:04 20:06:05 37° 136° (SE) 20:09:08 437.550
ZACube-1 20 Jan 20:07:58 20:11:24 22° 267° (W) 20:14:55 437.345
AO-85 20 Jan 20:13:52 20:18:42 50° 54° (NE) 20:23:48 145.980
AO-73 20 Jan 20:14:58 20:18:20 21° 267° (W) 20:21:46 145.935
Max Valier Satellite 20 Jan 20:19:57 20:23:15 31° 72° (ENE) 20:26:35 145.860
TIGRISAT 20 Jan 20:28:43 20:30:59 13° 90° (E) 20:33:14 435.000
FO-29 20 Jan 20:30:29 20:35:38 64° 287° (WNW) 20:40:49 435.910
BEESAT 2 20 Jan 20:34:05 20:36:18 14° 251° (WSW) 20:38:29 435.950
EO-88 20 Jan 20:39:12 20:42:31 34° 73° (ENE) 20:45:51 145.990 - 145.960
UNISAT 6 20 Jan 20:42:52 20:46:26 21° 93° (E) 20:49:59 437.425
Oscar 11 20 Jan 20:49:49 20:52:03 14° 269° (W) 20:54:19 .
DELFI C3 20 Jan 21:12:17 21:15:51 34° 262° (W) 21:19:27 145.870
ESTCUBE 1 20 Jan 21:25:17 21:28:04 16° 65° (ENE) 21:30:49 437.505/2401.250
nSIGHT-1 20 Jan 21:27:29 21:30:07 24° 334° (NNW) 21:32:46 .
ISS 20 Jan 21:39:48 21:42:37 27° 333° (NNW) 21:45:28 437.550
YUBILEINY 20 Jan 21:48:55 21:56:24 33° 84° (E) 22:03:52 435.215
Max Valier Satellite 20 Jan 21:54:47 21:57:07 16° 267° (W) 21:59:28 145.860
AO-85 20 Jan 21:55:00 21:58:52 22° 249° (WSW) 22:02:52 145.980
LO-87 20 Jan 21:58:55 22:02:13 39° 73° (ENE) 22:05:35 145.935 - 145.965
TIGRISAT 20 Jan 22:03:22 22:08:01 60° 286° (WNW) 22:12:37 435.000
EO-88 20 Jan 22:14:20 22:16:15 14° 267° (W) 22:18:10 145.990 - 145.960
UNISAT 6 20 Jan 22:18:52 22:23:13 38° 289° (WNW) 22:27:32 437.425
NO-84 20 Jan 22:24:02 22:24:43 11° 26° (NNE) 22:25:24 435.350 FM
PRISM 20 Jan 22:32:48 22:36:52 67° 102° (ESE) 22:40:55 437.425
POLYITAN 1 20 Jan 22:44:22 22:45:59 12° 91° (E) 22:47:34 437.675
SPROUT 20 Jan 22:58:05 23:01:55 34° 71° (ENE) 23:05:47 437.525
NANOSAT C BR1 20 Jan 22:59:14 23:01:49 16° 92° (E) 23:04:23 145.865
ESTCUBE 1 20 Jan 23:00:04 23:04:26 49° 260° (W) 23:08:50 437.505/2401.250
VELOX 1 20 Jan 23:01:01 23:04:21 22° 67° (ENE) 23:07:40 145.980
nSIGHT-1 20 Jan 23:06:41 23:07:11 10° 354° (N) 23:07:41 .
AIST 2D 20 Jan 23:09:11 23:12:39 85° 287° (WNW) 23:16:06 435.315
QB50P2 20 Jan 23:12:16 23:15:59 28° 96° (E) 23:19:42 145.880/145.840
ISS 20 Jan 23:18:56 23:19:58 11° 353° (N) 23:21:00 437.550
O/OREOS (USA 219) 20 Jan 23:19:32 23:22:57 22° 102° (ESE) 23:26:23 437.305
LO-87 20 Jan 23:34:37 23:35:47 11° 268° (W) 23:36:58 145.935 - 145.965
DUCHIFAT 1 20 Jan 23:41:49 23:45:51 40° 98° (E) 23:49:51 145.980
EO-79 20 Jan 23:42:50 23:47:03 57° 100° (E) 23:51:15 145.935-145.965
YUBILEINY 20 Jan 23:44:11 23:52:45 53° 283° (WNW) 00:01:20 435.215
NO-84 20 Jan 23:59:23 00:02:15 86° 49° (NE) 00:05:15 435.350 FM
AO-91 21 Jan 00:10:14 00:12:46 14° 93° (E) 00:15:26 145.960
PRISM 21 Jan 00:11:15 00:11:33 10° 298° (WNW) 00:11:50 437.425
POLYITAN 1 21 Jan 00:17:51 00:22:04 56° 286° (WNW) 00:26:14 437.675
NANOSAT C BR1 21 Jan 00:33:39 00:37:41 42° 288° (WNW) 00:41:41 145.865
SPROUT 21 Jan 00:34:52 00:37:52 19° 266° (W) 00:40:54 437.525
VELOX 1 21 Jan 00:36:37 00:40:34 33° 262° (W) 00:44:33 145.980
UKube-1 21 Jan 00:41:02 00:44:46 30° 69° (ENE) 00:48:31 .
nSIGHT-1 21 Jan 00:42:57 00:44:29 13° 14° (NNE) 00:46:01 .
BUGSAT 1 21 Jan 00:43:15 00:47:20 44° 99° (E) 00:51:23 437.445
QB50P2 21 Jan 00:48:11 00:51:37 24° 292° (WNW) 00:55:01 145.880/145.840
DX 1 21 Jan 00:52:14 00:56:32 69° 74° (ENE) 01:00:50 434.975-435.025
MOZHAYETS 4 21 Jan 00:55:10 00:57:17 13° 63° (ENE) 00:59:23
ISS 21 Jan 00:55:59 00:57:36 13° 13° (NNE) 00:59:13 437.550
O/OREOS (USA 219) 21 Jan 00:58:01 01:02:08 34° 298° (WNW) 01:06:14 437.305
50 SAT 21 Jan 01:04:44 01:07:48 86° 251° (WSW) 01:10:54 437.505
DUCHIFAT 1 21 Jan 01:18:24 01:21:09 17° 294° (WNW) 01:23:54 145.980
EO-79 21 Jan 01:20:23 01:22:18 13° 296° (WNW) 01:24:12 145.935-145.965
Gurwin Techsat 1B 21 Jan 01:21:05 01:26:14 48° 100° (E) 01:31:21 435.225
Oscar 19 21 Jan 01:35:05 01:40:17 88° 110° (ESE) 01:45:26 437.125/150
AO-91 21 Jan 01:44:58 01:49:22 57° 285° (WNW) 01:54:13 145.960
ITUPSAT 1 21 Jan 01:59:14 02:03:32 35° 69° (ENE) 02:07:52 437.325
UKube-1 21 Jan 02:17:24 02:20:46 22° 265° (W) 02:24:09 .
nSIGHT-1 21 Jan 02:18:11 02:21:16 45° 34° (NNE) 02:24:21 .
BUGSAT 1 21 Jan 02:19:43 02:22:17 16° 295° (WNW) 02:24:51 437.445
AO-7 21 Jan 02:25:17 02:32:23 30° 96° (E) 02:39:23 .
MOZHAYETS 4 21 Jan 02:29:15 02:33:50 66° 259° (WSW) 02:38:29
ISS 21 Jan 02:31:35 02:34:45 42° 32° (NNE) 02:37:53 437.550
CUBESAT XI-V 21 Jan 02:32:56 02:37:08 33° 70° (ENE) 02:41:19 437.345
BEESAT 21 Jan 02:38:20 02:43:05 89° 79° (E) 02:47:53 436.000
ITAMSAT 1 21 Jan 02:42:29 02:46:04 19° 93° (E) 02:49:39 435.822/435.867
Gurwin Techsat 1B 21 Jan 03:01:52 03:05:48 22° 296° (WNW) 03:09:45 435.225
Oscar 19 21 Jan 03:17:01 03:18:49 12° 301° (WNW) 03:20:36 437.125/150
ITUPSAT 1 21 Jan 03:37:34 03:41:23 24° 265° (W) 03:45:14 437.325
SO-50 21 Jan 03:45:14 03:46:35 11° 107° (ESE) 03:47:55 436.795
FALCONSAT 3 21 Jan 03:45:37 03:48:36 24° 162° (SSE) 03:51:36 435.103
nSIGHT-1 21 Jan 03:55:00 03:57:11 17° 229° (SW) 03:59:21 .
KKS-1 21 Jan 03:57:45 04:01:49 38° 71° (ENE) 04:05:55 437.445
ISS 21 Jan 04:08:34 04:11:01 20° 228° (SW) 04:13:28 437.550
CUBESAT XI-V 21 Jan 04:10:43 04:14:29 24° 265° (W) 04:18:17 437.345
STARS 21 Jan 04:14:02 04:17:23 22° 67° (ENE) 04:20:47 437.465
AO-7 21 Jan 04:17:20 04:25:30 60° 294° (WNW) 04:33:38 .
M-CUBED/EXP-1 PRIME 21 Jan 04:20:19 04:23:00 22° 101° (E) 04:25:37 437.505
DOVE 4 21 Jan 04:20:31 04:24:44 46° 99° (E) 04:29:11 437.250
ITAMSAT 1 21 Jan 04:20:45 04:25:47 51° 289° (WNW) 04:30:48 435.822/435.867
LilacSat-2 21 Jan 04:59:28 05:01:48 16° 93° (E) 05:04:06 437.200
XW-2C 21 Jan 05:01:31 05:03:45 15° 93° (E) 05:05:58 145.795 - 145.815
SO-50 21 Jan 05:21:57 05:26:23 71° 304° (WNW) 05:30:54 436.795
FALCONSAT 3 21 Jan 05:23:48 05:27:17 42° 176° (S) 05:30:46 435.103
KAITUO 1B 21 Jan 05:34:46 05:37:54 26° 96° (E) 05:41:02 145.475/437.950
STRAND 1 21 Jan 05:34:58 05:39:02 25° 66° (ENE) 05:43:09 437.568
KKS-1 21 Jan 05:35:26 05:38:29 18° 266° (W) 05:41:34 437.445
XW-2F 21 Jan 05:36:37 05:40:07 37° 98° (E) 05:43:35 145.980 - 146.000
CUTE 1.7 + AOD 2 21 Jan 05:39:22 05:41:06 12° 91° (E) 05:42:49 437.475
NUDT-PHONESAT 21 Jan 05:45:11 05:48:32 33° 97° (E) 05:51:51 437.300
XW-2D 21 Jan 05:46:21 05:50:04 59° 100° (E) 05:53:45 145.860 - 145.880
STARS 21 Jan 05:49:40 05:53:32 31° 263° (W) 05:57:26 437.465
CUBEBUG 2 21 Jan 05:53:22 05:55:43 13° 90° (E) 05:58:03 437.445
M-CUBED/EXP-1 PRIME 21 Jan 05:55:00 05:57:16 17° 298° (WNW) 05:59:27 437.505
CUTE-I 21 Jan 05:55:08 06:00:19 51° 100° (E) 06:05:29 437.470
DOVE 4 21 Jan 05:59:25 06:02:06 16° 293° (WNW) 06:04:52 437.250
HO-68 21 Jan 06:00:43 06:06:55 31° 96° (E) 06:13:04 435.675
XW-2B 21 Jan 06:03:57 06:07:43 84° 283° (WNW) 06:11:26 145.730 - 145.750
AO-7 21 Jan 06:13:00 06:16:32 13° 314° (NW) 06:20:03 .
LilacSat-2 21 Jan 06:32:45 06:36:08 32° 288° (WNW) 06:39:29 437.200
XW-2C 21 Jan 06:34:37 06:38:00 32° 288° (WNW) 06:41:21 145.795 - 145.815
FO-29 21 Jan 06:40:33 06:47:08 50° 71° (ENE) 06:52:59 435.910
AAUSAT CUBESAT 2 21 Jan 06:41:59 06:44:26 15° 92° (E) 06:46:52 437.432
RS-15 21 Jan 06:46:05 06:57:04 40° 106° (ESE) 07:07:56 29.354- 29.394
SEEDS 21 Jan 06:59:55 07:04:02 64° 101° (E) 07:08:09 437.485
FALCONSAT 3 21 Jan 07:02:42 07:06:02 33° 192° (SSW) 07:09:22 435.103
SO-50 21 Jan 07:06:24 07:07:41 11° 323° (NW) 07:08:58 436.795
KAITUO 1B 21 Jan 07:09:06 07:11:41 18° 292° (WNW) 07:14:15 145.475/437.950
XW-2F 21 Jan 07:11:56 07:13:51 14° 294° (WNW) 07:15:45 145.980 - 146.000
CUTE 1.7 + AOD 2 21 Jan 07:13:07 07:17:13 51° 286° (WNW) 07:21:15 437.475
STRAND 1 21 Jan 07:13:17 07:17:59 38° 262° (W) 07:22:44 437.568
NUDT-PHONESAT 21 Jan 07:19:57 07:22:03 15° 293° (WNW) 07:24:07 437.300
CUBEBUG 2 21 Jan 07:27:58 07:32:40 60° 286° (WNW) 07:37:19 437.445
TIGRISAT 21 Jan 07:28:12 07:29:07 11° 61° (ENE) 07:30:01 435.000
UWE-3 21 Jan 07:32:39 07:37:21 86° 99° (E) 07:41:58 435.000/436.395/437.385
XW-2A 21 Jan 07:34:22 07:37:39 52° 100° (E) 07:40:53 145.665 - 145.685
CUTE-I 21 Jan 07:36:07 07:39:58 21° 296° (WNW) 07:43:48 437.470
UNISAT 6 21 Jan 07:41:29 07:44:16 17° 65° (ENE) 07:47:07 437.425
HO-68 21 Jan 07:47:59 07:54:48 49° 293° (WNW) 08:01:36 435.675
ZACube-1 21 Jan 07:55:40 08:00:16 79° 102° (ESE) 08:04:43 437.345
BEESAT 3 21 Jan 07:59:15 08:00:04 11° 108° (ESE) 08:00:53 437.485
YUBILEINY 21 Jan 08:01:03 08:05:24 14° 60° (ENE) 08:09:43 435.215
AO-73 21 Jan 08:02:15 08:06:49 82° 102° (ESE) 08:11:15 145.935
AAUSAT CUBESAT 2 21 Jan 08:16:12 08:20:01 39° 288° (WNW) 08:23:50 437.432
FO-29 21 Jan 08:26:40 08:32:17 26° 264° (W) 08:37:26 435.910
PCSat 21 Jan 08:30:51 08:35:09 25° 107° (ESE) 08:39:28 145.827
Oscar 11 21 Jan 08:35:12 08:39:31 70° 285° (WNW) 08:43:47 .
SEEDS 21 Jan 08:38:06 08:39:09 11° 297° (WNW) 08:40:11 437.485
FALCONSAT 3 21 Jan 08:42:43 08:44:32 13° 206° (SSW) 08:46:22 435.103
DELFI C3 21 Jan 08:49:29 08:52:53 27° 96° (E) 08:56:16 145.870
RS-15 21 Jan 08:56:48 09:09:00 64° 308° (NW) 09:21:04 29.354- 29.394
TIGRISAT 21 Jan 09:00:40 09:05:05 77° 259° (W) 09:09:37 435.000
UWE-3 21 Jan 09:12:35 09:13:02 10° 299° (WNW) 09:13:29 435.000/436.395/437.385
UNISAT 6 21 Jan 09:16:19 09:20:33 46° 261° (W) 09:24:56 437.425
PRISM 21 Jan 09:20:54 09:24:42 40° 72° (ENE) 09:28:31 437.425
Max Valier Satellite 21 Jan 09:23:37 09:27:13 46° 99° (E) 09:30:45 145.860
O/OREOS (USA 219) 21 Jan 09:29:15 09:33:24 36° 63° (ENE) 09:37:32 437.305
BEESAT 3 21 Jan 09:33:06 09:37:02 62° 303° (WNW) 09:41:00 437.485
ZACube-1 21 Jan 09:34:55 09:35:48 11° 299° (WNW) 09:36:43 437.345
EO-88 21 Jan 09:41:24 09:44:57 49° 100° (E) 09:48:27 145.990 - 145.960
AO-73 21 Jan 09:41:54 09:42:18 10° 299° (WNW) 09:42:41 145.935
AIST 2D 21 Jan 09:42:21 09:45:22 27° 72° (ENE) 09:48:23 435.315
NANOSAT C BR1 21 Jan 09:51:58 09:53:08 11° 63° (ENE) 09:54:19 145.865
YUBILEINY 21 Jan 09:55:05 10:03:50 76° 81° (E) 10:12:30 435.215
QB50P2 21 Jan 10:04:22 10:07:26 20° 67° (ENE) 10:10:31 145.880/145.840
PCSat 21 Jan 10:13:05 10:18:14 44° 304° (NW) 10:23:26 145.827
BEESAT 2 21 Jan 10:22:02 10:26:02 73° 302° (WNW) 10:30:05 435.950
DELFI C3 21 Jan 10:24:31 10:27:26 20° 291° (WNW) 10:30:20 145.870
AO-85 21 Jan 10:29:42 10:31:58 15° 108° (ESE) 10:34:18 145.980
DUCHIFAT 1 21 Jan 10:32:43 10:36:14 27° 69° (ENE) 10:39:48 145.980
EO-79 21 Jan 10:34:08 10:38:01 37° 71° (ENE) 10:41:56 145.935-145.965
ESTCUBE 1 21 Jan 10:53:14 10:57:21 35° 98° (E) 11:01:26 437.505/2401.250
PRISM 21 Jan 10:57:51 11:00:08 15° 267° (W) 11:02:26 437.425
LO-87 21 Jan 10:59:08 11:02:43 55° 101° (E) 11:06:16 145.935 - 145.965
Max Valier Satellite 21 Jan 10:59:25 11:00:34 11° 295° (WNW) 11:01:42 145.860
POLYITAN 1 21 Jan 11:08:51 11:13:05 87° 257° (WSW) 11:17:22 437.675
O/OREOS (USA 219) 21 Jan 11:09:17 11:12:31 20° 259° (W) 11:15:45 437.305
Oscar 19 21 Jan 11:14:34 11:17:26 15° 61° (ENE) 11:20:17 437.125/150
RS-15 21 Jan 11:15:03 11:24:35 25° 337° (NNW) 11:33:56 29.354- 29.394
AIST 2D 21 Jan 11:16:18 11:18:31 16° 267° (W) 11:20:44 435.315
EO-88 21 Jan 11:17:40 11:18:05 10° 295° (WNW) 11:18:31 145.990 - 145.960
NANOSAT C BR1 21 Jan 11:24:04 11:28:15 66° 259° (WSW) 11:32:28 145.865
BUGSAT 1 21 Jan 11:32:10 11:35:37 27° 69° (ENE) 11:39:06 437.445
QB50P2 21 Jan 11:39:07 11:42:58 34° 263° (W) 11:46:50 145.880/145.840
YUBILEINY 21 Jan 11:53:34 11:59:36 21° 280° (W) 12:05:39 435.215
AO-85 21 Jan 12:08:05 12:11:53 44° 307° (NW) 12:15:58 145.980
DUCHIFAT 1 21 Jan 12:08:25 12:11:50 24° 265° (W) 12:15:16 145.980
EO-79 21 Jan 12:11:04 12:13:53 17° 267° (W) 12:16:44 145.935-145.965
SO-50 21 Jan 12:15:01 12:17:10 13° 39° (NE) 12:19:19 436.795
SPROUT 21 Jan 12:19:27 12:23:45 76° 102° (ESE) 12:28:03 437.525
VELOX 1 21 Jan 12:26:40 12:30:55 45° 99° (E) 12:35:08 145.980
ESTCUBE 1 21 Jan 12:30:33 12:33:54 21° 293° (WNW) 12:37:14 437.505/2401.250
Gurwin Techsat 1B 21 Jan 12:41:13 12:46:30 71° 74° (ENE) 12:51:48 435.225
AO-91 21 Jan 12:42:13 12:45:34 71° 258° (WSW) 12:49:02 145.960
DX 1 21 Jan 12:43:04 12:44:49 12° 91° (E) 12:46:35 434.975-435.025
Oscar 19 21 Jan 12:50:56 12:56:07 70° 258° (WSW) 13:01:20 437.125/150
BUGSAT 1 21 Jan 13:07:41 13:10:54 22° 265° (W) 13:14:11 437.445
AO-7 21 Jan 13:23:15 13:30:48 40° 61° (ENE) 13:38:23 .
RS-15 21 Jan 13:34:32 13:43:04 21° 13° (NNE) 13:51:19 29.354- 29.394
50 SAT 21 Jan 13:51:15 13:54:22 78° 102° (ESE) 13:57:28 437.505
SO-50 21 Jan 13:53:38 13:58:22 80° 59° (ENE) 14:03:09 436.795
ITAMSAT 1 21 Jan 13:59:26 14:03:44 27° 66° (ENE) 14:08:03 435.822/435.867
UKube-1 21 Jan 14:03:48 14:08:05 60° 102° (ESE) 14:12:19 .
VELOX 1 21 Jan 14:04:14 14:06:58 16° 295° (WNW) 14:09:41 145.980
DX 1 21 Jan 14:17:03 14:21:19 55° 287° (WNW) 14:25:33 434.975-435.025
Gurwin Techsat 1B 21 Jan 14:24:26 14:26:56 13° 270° (W) 14:29:27 435.225
MOZHAYETS 4 21 Jan 14:25:18 14:29:22 30° 96° (E) 14:33:24
BEESAT 21 Jan 14:39:45 14:43:36 24° 95° (E) 14:47:26 436.000
SRMSAT 21 Jan 14:50:24 14:51:10 10° 182° (S) 14:51:55 437.500
M-CUBED/EXP-1 PRIME 21 Jan 15:03:56 15:07:50 33° 67° (ENE) 15:11:30 437.505
NO-84 21 Jan 15:14:47 15:16:03 12° 126° (SE) 15:17:18 435.350 FM
AO-7 21 Jan 15:15:27 15:23:22 47° 259° (W) 15:31:23 .
DOVE 4 21 Jan 15:25:26 15:29:27 40° 73° (ENE) 15:33:21 437.250
SO-50 21 Jan 15:36:48 15:38:11 11° 253° (WSW) 15:39:34 436.795
ITUPSAT 1 21 Jan 15:37:28 15:42:18 89° 287° (WNW) 15:47:07 437.325
ITAMSAT 1 21 Jan 15:38:20 15:43:02 35° 262° (W) 15:47:45 435.822/435.867
UKube-1 21 Jan 15:41:46 15:43:33 12° 297° (WNW) 15:45:20 .
RS-15 21 Jan 15:48:17 15:59:36 48° 45° (NE) 16:10:17 29.354- 29.394
MOZHAYETS 4 21 Jan 16:02:34 16:06:23 26° 292° (WNW) 16:10:10
